Regional Weather Roundup
Issued by NWS Grand Forks, ND

Home | Current Version | Previous Version | Graphics & Text | Print | Product List | Glossary On
Versions: 1 2 3 4 5 6 7 8 9 10 11 12 13 14 15 16 17 18 19 20 21 22 23 24 25 26 27 28 29 30 31 32 33 34 35 36 37 38 39 40 41 42 43 44 45 46 47 48 49 50
000
ASUS43 KFGF 220210
RWRFGF
PRAIRIE TO PINES  WEATHER ROUNDUP
NATIONAL WEATHER SERVICE EASTERN NORTH DAKOTA/GRAND FORKS ND
900 PM CDT SAT APR 21 2018

 **SATELLITE DATA USED TO AUGMENT SKY COVER AT AUTOMATED STATIONS**
 *****  WEATHER ACROSS EASTERN NORTH DAKOTA  *****

CITY           SKY/WX    TMP DP  RH WIND       PRES   REMARKS
GRAND FORKS    FAIR      50  46  86 SE7       30.23S
GRAND FRKS AFB FAIR      49  43  78 SE8       30.22F
GRAND FRKS NWS   N/A     53  45  73 SE9       30.21S
DEVILS LAKE    FAIR      50  37  61 S13       30.18S
FARGO          FAIR      54  43  66 SE10      30.25S
WAHPETON ARPT  FAIR      48  41  76 SE8       30.29R
$$

 ***** WEATHER ACROSS CENTRAL AND WESTERN NORTH DAKOTA  *****

CITY           SKY/WX    TMP DP  RH WIND       PRES   REMARKS
BISMARCK       FAIR      50  36  58 S12       30.16S
MINOT          FAIR      54  38  54 SE15      30.04F
JAMESTOWN      FAIR      46  36  68 S9        30.21R
MINOT AFB      FAIR      53  39  58 S16G23    30.03S
GARRISON         N/A     46  36  68 S10       30.08S
WILLISTON      FAIR      61  39  44 S14       29.96R
DICKINSON      FAIR      50  37  61 S15       30.04R
HETTINGER      FAIR      47  36  65 S16       30.10S
$$

 *****  OTHER AIRPORT OBSERVATIONS IN OUR AREA  *****

CITY           SKY/WX    TMP DP  RH WIND       PRES   REMARKS
WALHALLA       FAIR      54  41  62 S9        30.18S
GRAFTON AIRPOR FAIR      50  45  81 SE10      30.24S
VALLEY CITY AR FAIR      46  41  81 S7        30.25S
CANDO          FAIR      48  39  71 S13       30.17R
CAVALIER APRT    N/A     54  43  66 SE8       30.19S
GWINNER          N/A     46  41  81 S8        30.26R
SHEYENNE NWR     N/A     48  42  80 S6        29.95S
ROLLA          FAIR      50  41  71 S14       30.12S
 ***** THE ABOVE OBSERVATIONS ARE NON NWS ARE NOT QUALITY
       CONTROLLED AND MAY MIS-REPORT RAIN FOR SNOW...
$$

  *****  WEATHER ACROSS NORTHERN MINNESOTA  *****

CITY           SKY/WX    TMP DP  RH WIND       PRES   REMARKS
FLAG ISLAND    FAIR      45  27  49 SE3       30.25S
WARROAD        FAIR      52  43  71 SW3       30.27R
ROSEAU         FAIR      52  45  76 SW3       30.26R
HALLOCK        FAIR      48  45  87 S10       30.23S
THF RVR FALLS  FAIR      50  44  80 SE5       30.27S
BAUDETTE       FAIR      50  34  54 S7        30.26R
WASKISH        FAIR      43  32  65 CALM      30.28R
CROOKSTON      FAIR      48  43  81 S8        30.26S
STEPHEN NDAWN    N/A     48  45  87 SE7         N/A
GREENBUSH NDAW   N/A     46  43  87 SE3         N/A
$$
  *****  WEATHER ACROSS CENTRAL AND WEST MINNESOTA  *****

CITY           SKY/WX    TMP DP  RH WIND       PRES   REMARKS
FOSSTON        FAIR      45  36  70 S6        30.28S
BEMIDJI        FAIR      51  28  41 S3        30.28R
PARK RAPIDS    FAIR      50  32  50 S5        30.29R
ELBOW LAKE     FAIR      42  37  82 S6        30.31R
WADENA         FAIR      45  32  61 CALM      30.31R
DETROIT LAKES  FAIR      50  34  53 CALM      30.30S
MOORHEAD       FAIR      52  43  71 S10       30.28R
FERGUS FALLS   FAIR      45  37  76 S7        30.28R
MORRIS MN      FAIR      46  39  76 S6        30.31R
STAPLES        FAIR      46  28  49 SE3       30.32R
$$
  *****  WEATHER ELSEWHERE ACROSS MINNESOTA  *****

CITY           SKY/WX    TMP DP  RH WIND       PRES   REMARKS
DULUTH         FAIR      48  20  32 S3        30.32S
INTRNTL FALLS  FAIR      43  28  55 SW3       30.27R
ELY            FAIR      48  16  27 S5        30.31R
CLOQUET        FAIR      45  10  24 CALM      30.33R
WHEATON        FAIR      46  39  76 SE8       30.31S
BRAINERD       FAIR      48  29  47 SE5       30.33R
HIBBING        FAIR      38  21  50 S5        30.30R
ALEXANDRIA     FAIR      50  34  54 S7        30.31S
SAINT CLOUD    FAIR      46  31  55 E5        30.33R
MINNEAPOLIS    FAIR      52  29  41 NW5       30.34R
$$

  *****  WEATHER ACROSS SOUTH DAKOTA  *****

CITY           SKY/WX    TMP DP  RH WIND       PRES   REMARKS
SIOUX FALLS    MOCLDY    43  35  73 E7        30.30R
BROOKINGS      MOCLDY    42  33  70 SE9       30.29F
WATERTOWN      FAIR      42  34  73 S6        30.29R
HURON          FAIR      44  34  67 S3        30.28R
SISSETON         N/A     48  39  71 S12       30.27S
ABERDEEN       FAIR      44  33  65 S8        30.27R
MITCHELL       FAIR      43  37  79 E5        30.28R
PIERRE         FAIR      43  38  82 SE13      30.21F
MOBRIDGE       FAIR      47  36  65 S9        30.19R
RAPID CITY     FAIR      44  36  73 S16       30.12S
$$

  *****  SOME WEATHER IN NEARBY STATES *****

CITY           SKY/WX    TMP DP  RH WIND       PRES   REMARKS
GLASGOW MT     FAIR      62  31  31 NW33G41   29.89R
GREAT FALLS MT FAIR      53  21  28 W25G32    30.00S
CHEYENNE WY    FAIR      37  35  92 SW13      30.15S
SCOTTSBLUFF NE FAIR      41  38  89 E9        30.17R
OMAHA NE       CLOUDY    53  31  42 NE12      30.24S
DES MOINES IA  CLOUDY    55  27  34 E16       30.27S
DAVENPORT IA   MOCLDY    50  33  52 E9        30.37R
CHICAGO IL     CLOUDY    47  16  29 E7        30.37R
EAU CLAIRE WI  FAIR      49  31  49 CALM      30.34R
LA CROSSE WI   CLOUDY    53  32  44 SE6       30.36R
$$

  *****  SOME NATIONAL WEATHER *****

CITY           SKY/WX    TMP DP  RH WIND       PRES   REMARKS
LA GUARDIA NY  FAIR      56  23  27 NW15      30.32R
RALEIGH NC     MOCLDY    57  38  48 SE6       30.34S
ATLANTA GA     MOCLDY    66  41  40 SE8       30.26R
NEW ORLEANS LA CLOUDY    72  67  84 SE12      30.05R
OKLAHOMA CITY  CLOUDY    47  46  97 N10       30.08R FOG
ALBUQUERQUE NM FAIR      65  25  22 W6        30.09R
SALT LAKE CITY FAIR      64  26  23 W5        30.12F
LOS ANGELES CA MOCLDY    62  52  69 W13       29.96S
BOISE ID       FAIR      67  32  27 N7        30.09F
SEATTLE WA     PTSUNNY   54  35  48 N8        30.40S
$$

*** WEATHER ACROSS MANITOBA...SASKATCHEWAN AND ONTARIO ***
                ***ONTARIO***

CITY           SKY/WX    TMP DP  RH WIND       PRES   REMARKS
GERALDTON      CLEAR     46  19  34 SW6       30.32R
THUNDER BAY    CLEAR     34  27  75 NE6       30.34R
SIOUX LOOKOUT  PTCLDY    37  23  56 CALM      30.26S
TORONTO        PTCLDY    48  21  34 N7        30.40R
BIG TROUT LK   CLEAR     41  27  56 SW5       30.18R
PICKLE LAKE    PTCLDY    50  25  37 S8        30.25R
DRYDEN         CLEAR     52  25  35 S6        30.26S
KENORA         PTCLDY    52  27  37 S6        30.24S
$$
                *** MANITOBA***

CITY           SKY/WX    TMP DP  RH WIND       PRES   REMARKS
BRANDON        MOCLDY    55  39  54 S14       30.05S
DAUPHIN        CLEAR     55  41  58 S8        29.97F
ISLAND LAKE    MOCLDY    50  27  40 SE7       30.12S
PILOT MOUND      N/A     48  39  71 S13         N/A
THE PAS        CLOUDY    45  36  70 SE13      29.85F
THOMPSON       CLOUDY    52  30  43 S5        30.00S
WINNIPEG       PTCLDY    57  43  58 S16       30.18R
LYNN LAKE      CLOUDY    50  34  53 E9        29.89F
CHURCHILL      MOCLDY    32  30  93 N20G30    30.16R WCI  20
GILLAM         PTCLDY    52  30  43 S5        30.06R
$$
                ***SASKATCHEWAN***

CITY           SKY/WX    TMP DP  RH WIND       PRES   REMARKS
ESTEVAN        MOCLDY    57  39  51 SE15G22   29.93R
KINDERSLEY     LGT RAIN  45  41  87 W28G39    29.72R
LLOYDMINSTER   LGT RAIN  41  39  93 NW10      29.62R FOG
PRINCE ALBERT  LGT RAIN  43  37  81 E9        29.67F
REGINA         LGT RAIN  59  45  58 S21G28    29.78F
YORKTON        CLOUDY    48  41  76 SE16G22   29.85F
N. BATTLEFORD  PTCLDY    50  39  66 S6        29.62F
LA RONGE       CLOUDY    41  36  81 E6        29.73F
SASKATOON      MOCLDY    48  43  81 S8        29.71F
SWIFT CURRENT  CLEAR     52  25  35 W26G40    29.83R
$$
NOTE: THESE ARE AUTOMATED STATIONS WITH LIMITED QUALITY CONTROL
      "FAIR" INDICATES FEW OR NO CLOUDS BELOW 12,000 FEET WITH NO
      SIGNIFICANT WEATHER AND/OR OBSTRUCTIONS TO VISIBILITY.
      SKY/WX - SKY CONDITION AND SIGNIFICANT WEATHER.
      TMP - AIR TEMPERATURE.    DP   - DEWPOINT TEMPERATURE.
      RH  - RELATIVE HUMIDITY.  PRES - PRESSURE.
      HX  - HEAT INDEX.         WCI  - WIND CHILL INDEX.
$



USA.gov is the U.S. government's official web portal to all federal, state and local government web resources and services.